User: anonymous   Login
Location: Unspecified
(43.4680°N, 87.1740°E)
Time: 04:27:11
(UTC+00:00)
Language:

FALCON 9 DEB - Orbit

View from above orbital plane
View from above orbital plane
View from above satellite
View from above satellite

Ground track
Ground track

The orbit data is extracted from the following two-line orbital elements,

1 46087U 20055BN  21169.29858091  .00011346  00000-0  11304-3 0  9995
2 46087  53.0049 190.7837 0008897 229.1160 130.9084 15.66220628 53838
Epoch (UTC): 18 June 2021 07:09:57
Eccentricity: 0.0008897
inclination: 53.0049°
perigee height: 364 km
apogee height: 376 km
right ascension of ascending node: 190.7837°
argument of perigee: 229.1160°
revolutions per day: 15.66220628
mean anomaly at epoch: 130.9084°
orbit number at epoch: 5383

The dashed part of the orbit path shows where the satellite is in the earth's shadow,  

DLR